Time,TemperatureF,DewpointF,PressureIn,WindDirection,WindDirectionDegrees,WindSpeedMPH,WindSpeedGustMPH,Humidity,HourlyPrecipIn,Conditions,Clouds,dailyrainin,SoftwareType,DateUTC
2013-04-01 00:02:00,36.5,21.4,24.22,North,0,4.0,4.0,54,0.00,,,0.00,meteohub,2013-04-01 06:02:00,
2013-04-01 00:07:00,36.5,21.4,24.22,North,0,4.0,4.0,54,0.00,,,0.00,meteohub,2013-04-01 06:07:00,
2013-04-01 00:17:00,36.3,21.2,24.22,North,0,4.0,4.0,54,0.00,,,0.00,meteohub,2013-04-01 06:17:00,
2013-04-01 00:22:00,36.3,21.2,24.22,NE,45,2.0,4.0,54,0.00,,,0.00,meteohub,2013-04-01 06:22:00,
2013-04-01 00:27:00,36.5,21.4,24.22,East,90,3.0,4.0,54,0.00,,,0.00,meteohub,2013-04-01 06:27:00,
2013-04-01 00:32:00,36.9,21.4,24.22,SE,135,3.0,4.0,53,0.00,,,0.00,meteohub,2013-04-01 06:32:00,
2013-04-01 00:42:00,35.8,21.6,24.22,South,180,4.0,4.0,56,0.00,,,0.00,meteohub,2013-04-01 06:42:00,
2013-04-01 00:47:00,35.6,21.9,24.22,South,180,4.0,5.0,57,0.00,,,0.00,meteohub,2013-04-01 06:47:00,
2013-04-01 00:52:00,35.6,21.9,24.22,South,180,4.0,5.0,57,0.00,,,0.00,meteohub,2013-04-01 06:52:00,
2013-04-01 00:57:00,35.6,21.9,24.22,South,180,4.0,5.0,57,0.00,,,0.00,meteohub,2013-04-01 06:57:00,
2013-04-01 01:02:00,35.4,21.7,24.22,South,180,4.0,4.0,57,0.00,,,0.00,meteohub,2013-04-01 07:02:00,
2013-04-01 01:07:00,35.4,21.7,24.22,South,180,4.0,4.0,57,0.00,,,0.00,meteohub,2013-04-01 07:07:00,
2013-04-01 01:12:00,35.1,21.7,24.21,South,180,6.0,6.0,58,0.00,,,0.00,meteohub,2013-04-01 07:12:00,
2013-04-01 01:17:00,35.2,21.9,24.21,South,180,7.0,7.0,58,0.00,,,0.00,meteohub,2013-04-01 07:17:00,
2013-04-01 01:22:00,34.9,21.6,24.21,South,180,7.0,7.0,58,0.00,,,0.00,meteohub,2013-04-01 07:22:00,
2013-04-01 01:27:00,34.7,21.9,24.21,South,180,8.0,8.0,59,0.00,,,0.00,meteohub,2013-04-01 07:27:00,
2013-04-01 01:37:00,34.5,22.1,24.21,South,180,8.0,9.0,60,0.00,,,0.00,meteohub,2013-04-01 07:37:00,
2013-04-01 01:42:00,34.9,21.9,24.21,South,180,9.0,9.0,59,0.00,,,0.00,meteohub,2013-04-01 07:42:00,
2013-04-01 01:47:00,35.1,22.1,24.21,South,180,9.0,9.0,59,0.00,,,0.00,meteohub,2013-04-01 07:47:00,
2013-04-01 01:57:00,35.4,22.1,24.21,South,180,8.0,9.0,58,0.00,,,0.00,meteohub,2013-04-01 07:57:00,
2013-04-01 02:02:00,35.6,21.9,24.21,South,180,8.0,9.0,57,0.00,,,0.00,meteohub,2013-04-01 08:02:00,
2013-04-01 02:07:00,35.6,21.9,24.21,South,180,8.0,8.0,57,0.00,,,0.00,meteohub,2013-04-01 08:07:00,
2013-04-01 02:12:00,35.1,21.7,24.21,South,180,9.0,9.0,58,0.00,,,0.00,meteohub,2013-04-01 08:12:00,
2013-04-01 02:22:00,34.9,21.9,24.21,South,180,10.0,10.0,59,0.00,,,0.00,meteohub,2013-04-01 08:22:00,
2013-04-01 02:27:00,34.7,21.9,24.21,South,180,10.0,11.0,59,0.00,,,0.00,meteohub,2013-04-01 08:27:00,
2013-04-01 02:37:00,34.7,21.9,24.21,South,180,11.0,11.0,59,0.00,,,0.00,meteohub,2013-04-01 08:37:00,
2013-04-01 02:42:00,34.5,22.1,24.21,South,180,11.0,11.0,60,0.00,,,0.00,meteohub,2013-04-01 08:42:00,
2013-04-01 02:47:00,34.3,22.3,24.21,South,180,10.0,11.0,61,0.00,,,0.00,meteohub,2013-04-01 08:47:00,
2013-04-01 02:57:00,34.2,22.1,24.21,South,180,10.0,11.0,61,0.00,,,0.00,meteohub,2013-04-01 08:57:00,
2013-04-01 03:02:00,34.0,22.3,24.21,South,180,11.0,11.0,62,0.00,,,0.00,meteohub,2013-04-01 09:02:00,
2013-04-01 03:07:00,34.0,22.3,24.21,South,180,11.0,11.0,62,0.00,,,0.00,meteohub,2013-04-01 09:07:00,
2013-04-01 03:12:00,33.6,22.5,24.21,South,180,12.0,12.0,63,0.00,,,0.00,meteohub,2013-04-01 09:12:00,
2013-04-01 03:17:00,33.1,22.6,24.21,South,180,14.0,14.0,65,0.00,,,0.00,meteohub,2013-04-01 09:17:00,
2013-04-01 03:22:00,32.5,22.8,24.21,South,180,13.0,14.0,67,0.00,,,0.00,meteohub,2013-04-01 09:22:00,
2013-04-01 03:32:00,32.5,22.5,24.21,South,180,14.0,15.0,66,0.00,,,0.00,meteohub,2013-04-01 09:32:00,
2013-04-01 03:37:00,32.5,22.8,24.21,South,180,13.0,15.0,67,0.00,,,0.00,meteohub,2013-04-01 09:37:00,
2013-04-01 03:47:00,31.6,22.6,24.20,South,180,11.0,15.0,69,0.00,,,0.00,meteohub,2013-04-01 09:47:00,
2013-04-01 03:52:00,31.6,22.6,24.20,South,180,15.0,15.0,69,0.00,,,0.00,meteohub,2013-04-01 09:52:00,
2013-04-01 03:57:00,31.1,22.5,24.21,South,180,15.0,15.0,70,0.00,,,0.00,meteohub,2013-04-01 09:57:00,
2013-04-01 04:02:00,31.1,22.8,24.20,South,180,15.0,15.0,71,0.00,,,0.00,meteohub,2013-04-01 10:02:00,
2013-04-01 04:07:00,31.1,22.8,24.20,South,180,15.0,15.0,71,0.00,,,0.00,meteohub,2013-04-01 10:07:00,
2013-04-01 04:17:00,31.6,21.6,24.20,South,180,18.0,18.0,66,0.00,,,0.00,meteohub,2013-04-01 10:17:00,
2013-04-01 04:22:00,31.6,21.6,24.20,South,180,19.0,19.0,66,0.00,,,0.00,meteohub,2013-04-01 10:22:00,
2013-04-01 04:27:00,31.6,21.2,24.20,South,180,19.0,19.0,65,0.00,,,0.00,meteohub,2013-04-01 10:27:00,
2013-04-01 04:32:00,31.6,21.2,24.20,South,180,18.0,20.0,65,0.00,,,0.00,meteohub,2013-04-01 10:32:00,
2013-04-01 04:37:00,31.6,21.6,24.20,South,180,17.0,20.0,66,0.00,,,0.00,meteohub,2013-04-01 10:37:00,
2013-04-01 04:42:00,31.5,21.4,24.20,South,180,17.0,20.0,66,0.00,,,0.00,meteohub,2013-04-01 10:42:00,
2013-04-01 04:47:00,31.5,21.4,24.20,South,180,17.0,20.0,66,0.00,,,0.00,meteohub,2013-04-01 10:47:00,
2013-04-01 04:52:00,31.5,21.4,24.20,South,180,19.0,21.0,66,0.00,,,0.00,meteohub,2013-04-01 10:52:00,
2013-04-01 04:57:00,31.5,21.0,24.20,South,180,18.0,21.0,65,0.00,,,0.00,meteohub,2013-04-01 10:57:00,
2013-04-01 05:02:00,31.3,21.2,24.20,South,180,18.0,21.0,66,0.00,,,0.00,meteohub,2013-04-01 11:02:00,
2013-04-01 05:07:00,31.3,21.2,24.20,South,180,18.0,21.0,66,0.00,,,0.00,meteohub,2013-04-01 11:07:00,
2013-04-01 05:17:00,30.9,21.2,24.20,South,180,18.0,20.0,67,0.00,,,0.00,meteohub,2013-04-01 11:17:00,
2013-04-01 05:27:00,31.3,20.8,24.20,South,180,21.0,21.0,65,0.00,,,0.00,meteohub,2013-04-01 11:27:00,
2013-04-01 05:37:00,31.6,20.8,24.20,South,180,20.0,22.0,64,0.00,,,0.00,meteohub,2013-04-01 11:37:00,
2013-04-01 05:47:00,31.5,20.7,24.19,South,180,18.0,21.0,64,0.00,,,0.00,meteohub,2013-04-01 11:47:00,
2013-04-01 05:57:00,31.5,20.7,24.20,South,180,17.0,21.0,64,0.00,,,0.00,meteohub,2013-04-01 11:57:00,
2013-04-01 06:02:00,31.1,20.7,24.20,South,180,17.0,20.0,65,0.00,,,0.00,meteohub,2013-04-01 12:02:00,
2013-04-01 06:07:00,31.1,20.7,24.20,South,180,17.0,19.0,65,0.00,,,0.00,meteohub,2013-04-01 12:07:00,
2013-04-01 06:12:00,30.7,20.7,24.20,South,180,17.0,19.0,66,0.00,,,0.00,meteohub,2013-04-01 12:12:00,
2013-04-01 06:17:00,30.6,20.5,24.20,South,180,17.0,17.0,66,0.00,,,0.00,meteohub,2013-04-01 12:17:00,
2013-04-01 06:22:00,30.6,20.5,24.20,South,180,17.0,18.0,66,0.00,,,0.00,meteohub,2013-04-01 12:22:00,
2013-04-01 06:27:00,30.7,20.7,24.20,South,180,17.0,18.0,66,0.00,,,0.00,meteohub,2013-04-01 12:27:00,
2013-04-01 06:32:00,30.7,20.3,24.20,South,180,19.0,19.0,65,0.00,,,0.00,meteohub,2013-04-01 12:32:00,
2013-04-01 06:37:00,30.7,20.3,24.20,South,180,17.0,19.0,65,0.00,,,0.00,meteohub,2013-04-01 12:37:00,
2013-04-01 06:42:00,30.7,20.7,24.20,South,180,17.0,19.0,66,0.00,,,0.00,meteohub,2013-04-01 12:42:00,
2013-04-01 06:47:00,30.9,20.5,24.20,South,180,18.0,19.0,65,0.00,,,0.00,meteohub,2013-04-01 12:47:00,
2013-04-01 06:57:00,30.7,20.3,24.21,South,180,17.0,20.0,65,0.00,,,0.00,meteohub,2013-04-01 12:57:00,
2013-04-01 07:07:00,30.7,20.3,24.20,South,180,17.0,20.0,65,0.00,,,0.00,meteohub,2013-04-01 13:07:00,
2013-04-01 07:17:00,31.6,20.8,24.20,South,180,17.0,19.0,64,0.00,,,0.00,meteohub,2013-04-01 13:17:00,
2013-04-01 07:27:00,32.0,20.8,24.20,South,180,17.0,19.0,63,0.00,,,0.00,meteohub,2013-04-01 13:27:00,
2013-04-01 07:32:00,32.2,21.0,24.20,South,180,18.0,19.0,63,0.00,,,0.00,meteohub,2013-04-01 13:32:00,
2013-04-01 07:37:00,32.5,21.4,24.20,South,180,19.0,19.0,63,0.00,,,0.00,meteohub,2013-04-01 13:37:00,
2013-04-01 07:47:00,32.9,21.4,24.20,South,180,19.0,21.0,62,0.00,,,0.00,meteohub,2013-04-01 13:47:00,
2013-04-01 07:52:00,32.9,21.4,24.21,South,180,19.0,21.0,62,0.00,,,0.00,meteohub,2013-04-01 13:52:00,
2013-04-01 07:57:00,33.3,21.2,24.21,South,180,18.0,21.0,61,0.00,,,0.00,meteohub,2013-04-01 13:57:00,
2013-04-01 08:07:00,33.1,21.6,24.20,South,180,20.0,21.0,62,0.00,,,0.00,meteohub,2013-04-01 14:07:00,
2013-04-01 08:12:00,33.8,21.7,24.20,South,180,19.0,21.0,61,0.00,,,0.00,meteohub,2013-04-01 14:12:00,
2013-04-01 08:17:00,34.0,21.6,24.20,South,180,19.0,21.0,60,0.00,,,0.00,meteohub,2013-04-01 14:17:00,
2013-04-01 08:22:00,33.6,21.6,24.20,South,180,21.0,21.0,61,0.00,,,0.00,meteohub,2013-04-01 14:22:00,
2013-04-01 08:27:00,33.4,21.7,24.20,South,180,21.0,21.0,62,0.00,,,0.00,meteohub,2013-04-01 14:27:00,
2013-04-01 08:37:00,33.8,21.7,24.21,South,180,20.0,23.0,61,0.00,,,0.00,meteohub,2013-04-01 14:37:00,
2013-04-01 08:42:00,33.4,21.7,24.21,SE,135,21.0,23.0,62,0.00,,,0.00,meteohub,2013-04-01 14:42:00,
2013-04-01 08:47:00,33.6,21.9,24.20,SSE,158,18.0,23.0,62,0.00,,,0.00,meteohub,2013-04-01 14:47:00,
2013-04-01 08:52:00,34.0,21.9,24.20,South,180,19.0,22.0,61,0.00,,,0.00,meteohub,2013-04-01 14:52:00,
2013-04-01 09:02:00,35.1,21.7,24.20,South,180,23.0,23.0,58,0.00,,,0.00,meteohub,2013-04-01 15:02:00,
2013-04-01 09:07:00,35.1,21.7,24.20,South,180,23.0,23.0,58,0.00,,,0.00,meteohub,2013-04-01 15:07:00,
2013-04-01 09:17:00,35.2,23.2,24.21,South,180,18.0,23.0,61,0.00,,,0.00,meteohub,2013-04-01 15:17:00,
2013-04-01 09:22:00,35.8,22.5,24.20,South,180,19.0,23.0,58,0.00,,,0.00,meteohub,2013-04-01 15:22:00,
2013-04-01 09:27:00,35.8,22.8,24.20,South,180,21.0,21.0,59,0.00,,,0.00,meteohub,2013-04-01 15:27:00,
2013-04-01 09:32:00,36.1,23.2,24.20,South,180,21.0,21.0,59,0.00,,,0.00,meteohub,2013-04-01 15:32:00,
2013-04-01 09:37:00,36.3,23.4,24.20,South,180,21.0,25.0,59,0.00,,,0.00,meteohub,2013-04-01 15:37:00,
2013-04-01 09:42:00,36.7,23.7,24.20,South,180,22.0,25.0,59,0.00,,,0.00,meteohub,2013-04-01 15:42:00,
2013-04-01 09:47:00,36.9,22.6,24.20,SSE,158,23.0,25.0,56,0.00,,,0.00,meteohub,2013-04-01 15:47:00,
2013-04-01 09:57:00,37.2,23.0,24.20,South,180,22.0,26.0,56,0.00,,,0.00,meteohub,2013-04-01 15:57:00,
2013-04-01 10:02:00,37.0,22.8,24.20,South,180,21.0,26.0,56,0.00,,,0.00,meteohub,2013-04-01 16:02:00,
2013-04-01 10:07:00,37.0,22.8,24.20,South,180,21.0,25.0,56,0.00,,,0.00,meteohub,2013-04-01 16:07:00,
2013-04-01 10:12:00,37.9,22.8,24.20,South,180,22.0,23.0,54,0.00,,,0.00,meteohub,2013-04-01 16:12:00,
2013-04-01 10:17:00,38.7,23.0,24.20,South,180,23.0,23.0,53,0.00,,,0.00,meteohub,2013-04-01 16:17:00,
2013-04-01 10:22:00,38.7,23.0,24.21,South,180,22.0,23.0,53,0.00,,,0.00,meteohub,2013-04-01 16:22:00,
2013-04-01 10:27:00,38.8,22.6,24.21,South,180,21.0,24.0,52,0.00,,,0.00,meteohub,2013-04-01 16:27:00,
2013-04-01 10:37:00,39.6,22.5,24.21,South,180,17.0,23.0,50,0.00,,,0.00,meteohub,2013-04-01 16:37:00,
2013-04-01 10:42:00,39.9,22.8,24.21,SE,135,19.0,23.0,50,0.00,,,0.00,meteohub,2013-04-01 16:42:00,
2013-04-01 10:52:00,40.3,19.0,24.20,South,180,27.0,27.0,42,0.00,,,0.00,meteohub,2013-04-01 16:52:00,
2013-04-01 10:57:00,40.5,21.7,24.21,South,180,19.0,27.0,47,0.00,,,0.00,meteohub,2013-04-01 16:57:00,
2013-04-01 11:07:00,40.5,21.4,24.21,SSE,158,25.0,27.0,46,0.00,,,0.00,meteohub,2013-04-01 17:07:00,
2013-04-01 11:12:00,41.0,22.3,24.21,SSE,158,21.0,25.0,47,0.00,,,0.00,meteohub,2013-04-01 17:12:00,
2013-04-01 11:22:00,41.9,20.5,24.21,South,180,21.0,25.0,42,0.00,,,0.00,meteohub,2013-04-01 17:22:00,
2013-04-01 11:27:00,42.1,21.2,24.21,SSE,158,16.0,23.0,43,0.00,,,0.00,meteohub,2013-04-01 17:27:00,
2013-04-01 11:32:00,42.3,20.3,24.22,SSE,158,21.0,23.0,41,0.00,,,0.00,meteohub,2013-04-01 17:32:00,
2013-04-01 11:37:00,42.3,20.3,24.22,SE,135,17.0,23.0,41,0.00,,,0.00,meteohub,2013-04-01 17:37:00,
2013-04-01 11:42:00,42.6,19.9,24.22,SE,135,15.0,21.0,40,0.00,,,0.00,meteohub,2013-04-01 17:42:00,
2013-04-01 11:52:00,43.5,19.6,24.22,South,180,13.0,18.0,38,0.00,,,0.00,meteohub,2013-04-01 17:52:00,
2013-04-01 11:57:00,44.6,21.2,24.22,SE,135,4.0,18.0,39,0.00,,,0.00,meteohub,2013-04-01 17:57:00,
2013-04-01 12:02:00,46.6,23.5,24.22,North,0,4.0,15.0,40,0.00,,,0.00,meteohub,2013-04-01 18:02:00,
2013-04-01 12:07:00,46.6,23.5,24.22,North,0,4.0,13.0,40,0.00,,,0.00,meteohub,2013-04-01 18:07:00,
2013-04-01 12:12:00,43.2,25.3,24.22,North,0,17.0,17.0,49,0.00,,,0.00,meteohub,2013-04-01 18:12:00,
2013-04-01 12:17:00,43.0,25.7,24.22,NNW,338,16.0,17.0,50,0.00,,,0.00,meteohub,2013-04-01 18:17:00,
2013-04-01 12:22:00,42.4,25.2,24.22,NW,315,17.0,17.0,50,0.00,,,0.00,meteohub,2013-04-01 18:22:00,
2013-04-01 12:27:00,42.1,25.3,24.22,North,0,15.0,17.0,51,0.00,,,0.00,meteohub,2013-04-01 18:27:00,
2013-04-01 12:37:00,42.8,25.0,24.22,NE,45,14.0,17.0,49,0.00,,,0.00,meteohub,2013-04-01 18:37:00,
2013-04-01 12:42:00,42.8,25.5,24.22,North,0,15.0,21.0,50,0.00,,,0.00,meteohub,2013-04-01 18:42:00,
2013-04-01 12:47:00,43.7,24.8,24.22,NE,45,12.0,21.0,47,0.00,,,0.00,meteohub,2013-04-01 18:47:00,
2013-04-01 12:57:00,44.2,24.3,24.22,NE,45,14.0,20.0,45,0.00,,,0.00,meteohub,2013-04-01 18:57:00,
2013-04-01 13:02:00,45.0,24.4,24.22,NE,45,13.0,17.0,44,0.00,,,0.00,meteohub,2013-04-01 19:02:00,
2013-04-01 13:12:00,44.8,24.3,24.21,North,0,12.0,18.0,44,0.00,,,0.00,meteohub,2013-04-01 19:12:00,
2013-04-01 13:17:00,45.9,25.7,24.21,NE,45,15.0,18.0,45,0.00,,,0.00,meteohub,2013-04-01 19:17:00,
2013-04-01 13:27:00,45.3,24.6,24.21,NE,45,17.0,20.0,44,0.00,,,0.00,meteohub,2013-04-01 19:27:00,
2013-04-01 13:32:00,45.5,24.3,24.21,NE,45,16.0,20.0,43,0.00,,,0.00,meteohub,2013-04-01 19:32:00,
2013-04-01 13:42:00,45.9,25.7,24.21,NE,45,14.0,18.0,45,0.00,,,0.00,meteohub,2013-04-01 19:42:00,
2013-04-01 13:47:00,46.0,24.8,24.21,NE,45,21.0,21.0,43,0.00,,,0.00,meteohub,2013-04-01 19:47:00,
2013-04-01 13:52:00,46.2,26.1,24.21,NNE,23,18.0,21.0,45,0.00,,,0.00,meteohub,2013-04-01 19:52:00,
2013-04-01 13:57:00,45.9,25.2,24.20,NE,45,19.0,21.0,44,0.00,,,0.00,meteohub,2013-04-01 19:57:00,
2013-04-01 14:02:00,46.2,25.0,24.20,NE,45,17.0,21.0,43,0.00,,,0.00,meteohub,2013-04-01 20:02:00,
2013-04-01 14:07:00,46.2,25.0,24.20,NE,45,17.0,21.0,43,0.00,,,0.00,meteohub,2013-04-01 20:07:00,
2013-04-01 14:12:00,46.9,25.0,24.20,NE,45,13.0,21.0,42,0.00,,,0.00,meteohub,2013-04-01 20:12:00,
2013-04-01 14:17:00,47.1,23.4,24.20,NE,45,20.0,20.0,39,0.00,,,0.00,meteohub,2013-04-01 20:17:00,
2013-04-01 14:22:00,46.9,25.5,24.20,NE,45,15.0,21.0,43,0.00,,,0.00,meteohub,2013-04-01 20:22:00,
2013-04-01 14:27:00,47.8,25.9,24.20,NE,45,14.0,21.0,42,0.00,,,0.00,meteohub,2013-04-01 20:27:00,
2013-04-01 14:32:00,47.7,24.4,24.20,North,0,15.0,21.0,40,0.00,,,0.00,meteohub,2013-04-01 20:32:00,
2013-04-01 14:37:00,47.7,22.1,24.20,NE,45,15.0,18.0,36,0.00,,,0.00,meteohub,2013-04-01 20:37:00,
2013-04-01 14:42:00,48.4,21.9,24.20,North,0,8.0,20.0,35,0.00,,,0.00,meteohub,2013-04-01 20:42:00,
2013-04-01 14:52:00,48.9,21.0,24.20,NE,45,18.0,20.0,33,0.00,,,0.00,meteohub,2013-04-01 20:52:00,
2013-04-01 14:57:00,48.9,22.5,24.20,NE,45,15.0,18.0,35,0.00,,,0.00,meteohub,2013-04-01 20:57:00,
2013-04-01 15:02:00,49.3,23.5,24.19,NE,45,11.0,18.0,36,0.00,,,0.00,meteohub,2013-04-01 21:02:00,
2013-04-01 15:07:00,49.3,23.5,24.19,NE,45,11.0,18.0,36,0.00,,,0.00,meteohub,2013-04-01 21:07:00,
2013-04-01 15:17:00,49.5,22.3,24.19,North,0,12.0,19.0,34,0.00,,,0.00,meteohub,2013-04-01 21:17:00,
2013-04-01 15:22:00,49.5,22.3,24.19,North,0,13.0,19.0,34,0.00,,,0.00,meteohub,2013-04-01 21:22:00,
2013-04-01 15:27:00,49.8,23.2,24.19,WNW,293,9.0,19.0,35,0.00,,,0.00,meteohub,2013-04-01 21:27:00,
2013-04-01 15:37:00,49.1,22.6,24.19,North,0,14.0,20.0,35,0.00,,,0.00,meteohub,2013-04-01 21:37:00,
2013-04-01 15:42:00,50.4,22.3,24.19,North,0,13.0,20.0,33,0.00,,,0.00,meteohub,2013-04-01 21:42:00,
2013-04-01 15:52:00,49.8,23.9,24.19,North,0,17.0,19.0,36,0.00,,,0.00,meteohub,2013-04-01 21:52:00,
2013-04-01 15:57:00,50.7,25.3,24.19,NE,45,17.0,19.0,37,0.00,,,0.00,meteohub,2013-04-01 21:57:00,
2013-04-01 16:02:00,50.4,21.6,24.19,NE,45,12.0,17.0,32,0.00,,,0.00,meteohub,2013-04-01 22:02:00,
2013-04-01 16:12:00,50.4,23.7,24.19,NNW,338,11.0,18.0,35,0.00,,,0.00,meteohub,2013-04-01 22:12:00,
2013-04-01 16:17:00,50.7,22.6,24.19,North,0,14.0,17.0,33,0.00,,,0.00,meteohub,2013-04-01 22:17:00,
2013-04-01 16:22:00,49.5,22.3,24.19,North,0,16.0,18.0,34,0.00,,,0.00,meteohub,2013-04-01 22:22:00,
2013-04-01 16:27:00,50.5,23.2,24.19,NE,45,15.0,19.0,34,0.00,,,0.00,meteohub,2013-04-01 22:27:00,
2013-04-01 16:32:00,50.4,23.0,24.19,North,0,15.0,19.0,34,0.00,,,0.00,meteohub,2013-04-01 22:32:00,
2013-04-01 16:37:00,50.7,21.9,24.18,NNW,338,18.0,19.0,32,0.00,,,0.00,meteohub,2013-04-01 22:37:00,
2013-04-01 16:42:00,50.7,21.9,24.18,North,0,11.0,18.0,32,0.00,,,0.00,meteohub,2013-04-01 22:42:00,
2013-04-01 16:52:00,50.5,21.7,24.18,North,0,17.0,18.0,32,0.00,,,0.00,meteohub,2013-04-01 22:52:00,
2013-04-01 16:57:00,50.4,21.6,24.18,North,0,13.0,17.0,32,0.00,,,0.00,meteohub,2013-04-01 22:57:00,
2013-04-01 17:07:00,50.4,22.3,24.18,North,0,15.0,18.0,33,0.00,,,0.00,meteohub,2013-04-01 23:07:00,
2013-04-01 17:12:00,50.4,22.3,24.18,North,0,20.0,20.0,33,0.00,,,0.00,meteohub,2013-04-01 23:12:00,
2013-04-01 17:17:00,50.2,22.1,24.18,North,0,17.0,21.0,33,0.00,,,0.00,meteohub,2013-04-01 23:17:00,
2013-04-01 17:27:00,50.2,20.7,24.19,NE,45,15.0,21.0,31,0.00,,,0.00,meteohub,2013-04-01 23:27:00,
2013-04-01 17:37:00,49.8,21.2,24.18,North,0,19.0,21.0,32,0.00,,,0.00,meteohub,2013-04-01 23:37:00,
2013-04-01 17:42:00,50.0,22.1,24.18,North,0,17.0,19.0,33,0.00,,,0.00,meteohub,2013-04-01 23:42:00,
2013-04-01 17:47:00,49.8,20.3,24.17,NE,45,20.0,20.0,31,0.00,,,0.00,meteohub,2013-04-01 23:47:00,
2013-04-01 17:52:00,49.8,20.3,24.18,North,0,15.0,20.0,31,0.00,,,0.00,meteohub,2013-04-01 23:52:00,
2013-04-01 17:57:00,49.6,19.4,24.18,North,0,17.0,21.0,30,0.00,,,0.00,meteohub,2013-04-01 23:57:00,
2013-04-01 18:07:00,49.8,20.3,24.17,North,0,16.0,18.0,31,0.00,,,0.00,meteohub,2013-04-02 00:07:00,
2013-04-01 18:17:00,49.1,20.5,24.18,North,0,17.0,22.0,32,0.00,,,0.00,meteohub,2013-04-02 00:17:00,
2013-04-01 18:22:00,49.6,20.3,24.18,NE,45,11.0,22.0,31,0.00,,,0.00,meteohub,2013-04-02 00:22:00,
2013-04-01 18:32:00,49.1,19.8,24.18,North,0,15.0,20.0,31,0.00,,,0.00,meteohub,2013-04-02 00:32:00,
2013-04-01 18:42:00,48.9,20.3,24.17,North,0,13.0,20.0,32,0.00,,,0.00,meteohub,2013-04-02 00:42:00,
2013-04-01 18:47:00,49.1,21.2,24.17,NE,45,10.0,20.0,33,0.00,,,0.00,meteohub,2013-04-02 00:47:00,
2013-04-01 18:52:00,48.6,19.9,24.17,NE,45,13.0,15.0,32,0.00,,,0.00,meteohub,2013-04-02 00:52:00,
2013-04-01 19:02:00,48.0,20.3,24.17,NW,315,12.0,15.0,33,0.00,,,0.00,meteohub,2013-04-02 01:02:00,
2013-04-01 19:07:00,48.0,20.3,24.17,NW,315,12.0,15.0,33,0.00,,,0.00,meteohub,2013-04-02 01:07:00,
2013-04-01 19:17:00,47.1,20.8,24.17,East,90,11.0,14.0,35,0.00,,,0.00,meteohub,2013-04-02 01:17:00,
2013-04-01 19:22:00,46.4,20.3,24.17,North,0,12.0,14.0,35,0.00,,,0.00,meteohub,2013-04-02 01:22:00,
2013-04-01 19:27:00,46.0,20.5,24.17,North,0,8.0,15.0,36,0.00,,,0.00,meteohub,2013-04-02 01:27:00,
2013-04-01 19:32:00,45.9,21.0,24.17,North,0,7.0,15.0,37,0.00,,,0.00,meteohub,2013-04-02 01:32:00,
2013-04-01 19:37:00,45.3,19.9,24.17,NE,45,10.0,15.0,36,0.00,,,0.00,meteohub,2013-04-02 01:37:00,
2013-04-01 19:42:00,45.0,19.6,24.17,North,0,9.0,12.0,36,0.00,,,0.00,meteohub,2013-04-02 01:42:00,
2013-04-01 19:52:00,44.6,19.2,24.17,North,0,7.0,12.0,36,0.00,,,0.00,meteohub,2013-04-02 01:52:00,
2013-04-01 19:57:00,44.1,19.4,24.17,NE,45,10.0,12.0,37,0.00,,,0.00,meteohub,2013-04-02 01:57:00,
2013-04-01 20:02:00,43.7,19.0,24.17,NE,45,9.0,12.0,37,0.00,,,0.00,meteohub,2013-04-02 02:02:00,
2013-04-01 20:07:00,43.7,19.0,24.17,NE,45,9.0,11.0,37,0.00,,,0.00,meteohub,2013-04-02 02:07:00,
2013-04-01 20:12:00,43.7,19.0,24.17,North,0,8.0,11.0,37,0.00,,,0.00,meteohub,2013-04-02 02:12:00,
2013-04-01 20:17:00,43.5,19.0,24.17,North,0,9.0,10.0,37,0.00,,,0.00,meteohub,2013-04-02 02:17:00,
2013-04-01 20:22:00,43.7,19.0,24.17,North,0,8.0,10.0,37,0.00,,,0.00,meteohub,2013-04-02 02:22:00,
2013-04-01 20:27:00,44.1,18.9,24.17,North,0,7.0,10.0,36,0.00,,,0.00,meteohub,2013-04-02 02:27:00,
2013-04-01 20:32:00,44.1,18.9,24.18,North,0,7.0,10.0,36,0.00,,,0.00,meteohub,2013-04-02 02:32:00,
2013-04-01 20:42:00,43.0,19.8,24.17,NW,315,9.0,9.0,39,0.00,,,0.00,meteohub,2013-04-02 02:42:00,
2013-04-01 20:52:00,43.2,19.2,24.18,NW,315,8.0,10.0,38,0.00,,,0.00,meteohub,2013-04-02 02:52:00,
2013-04-01 21:02:00,43.2,19.2,24.18,NW,315,7.0,8.0,38,0.00,,,0.00,meteohub,2013-04-02 03:02:00,
2013-04-01 21:07:00,43.2,19.2,24.18,NW,315,7.0,8.0,38,0.00,,,0.00,meteohub,2013-04-02 03:07:00,
2013-04-01 21:12:00,43.2,19.2,24.18,NW,315,4.0,8.0,38,0.00,,,0.00,meteohub,2013-04-02 03:12:00,
2013-04-01 21:17:00,43.3,19.4,24.18,NW,315,4.0,7.0,38,0.00,,,0.00,meteohub,2013-04-02 03:17:00,
2013-04-01 21:22:00,43.2,19.2,24.18,West,270,3.0,7.0,38,0.00,,,0.00,meteohub,2013-04-02 03:22:00,
2013-04-01 21:32:00,43.0,19.8,24.18,West,270,2.0,4.0,39,0.00,,,0.00,meteohub,2013-04-02 03:32:00,
2013-04-01 21:37:00,43.3,18.9,24.18,South,180,5.0,5.0,37,0.00,,,0.00,meteohub,2013-04-02 03:37:00,
2013-04-01 21:42:00,43.5,18.3,24.18,South,180,4.0,6.0,36,0.00,,,0.00,meteohub,2013-04-02 03:42:00,
2013-04-01 21:47:00,43.7,18.5,24.18,South,180,5.0,6.0,36,0.00,,,0.00,meteohub,2013-04-02 03:47:00,
2013-04-01 21:52:00,43.9,18.7,24.18,South,180,4.0,7.0,36,0.00,,,0.00,meteohub,2013-04-02 03:52:00,
2013-04-01 22:02:00,43.5,18.3,24.18,South,180,4.0,6.0,36,0.00,,,0.00,meteohub,2013-04-02 04:02:00,
2013-04-01 22:07:00,43.5,18.3,24.18,South,180,4.0,4.0,36,0.00,,,0.00,meteohub,2013-04-02 04:07:00,
2013-04-01 22:12:00,43.5,18.3,24.18,South,180,6.0,6.0,36,0.00,,,0.00,meteohub,2013-04-02 04:12:00,
2013-04-01 22:17:00,42.4,19.2,24.18,South,180,4.0,7.0,39,0.00,,,0.00,meteohub,2013-04-02 04:17:00,
2013-04-01 22:22:00,42.1,19.6,24.18,South,180,8.0,8.0,40,0.00,,,0.00,meteohub,2013-04-02 04:22:00,
2013-04-01 22:27:00,41.7,20.8,24.18,South,180,8.0,8.0,43,0.00,,,0.00,meteohub,2013-04-02 04:27:00,
2013-04-01 22:37:00,41.4,20.5,24.17,South,180,13.0,13.0,43,0.00,,,0.00,meteohub,2013-04-02 04:37:00,
2013-04-01 22:47:00,40.6,21.0,24.17,SSE,158,14.0,15.0,45,0.00,,,0.00,meteohub,2013-04-02 04:47:00,
2013-04-01 22:52:00,40.5,21.4,24.17,South,180,13.0,15.0,46,0.00,,,0.00,meteohub,2013-04-02 04:52:00,
2013-04-01 22:57:00,40.3,21.2,24.17,South,180,13.0,15.0,46,0.00,,,0.00,meteohub,2013-04-02 04:57:00,
2013-04-01 23:02:00,40.6,21.6,24.17,South,180,16.0,16.0,46,0.00,,,0.00,meteohub,2013-04-02 05:02:00,
2013-04-01 23:12:00,39.9,21.7,24.17,South,180,15.0,16.0,48,0.00,,,0.00,meteohub,2013-04-02 05:12:00,
2013-04-01 23:17:00,39.4,21.7,24.18,South,180,16.0,17.0,49,0.00,,,0.00,meteohub,2013-04-02 05:17:00,
2013-04-01 23:22:00,39.4,21.4,24.17,SSE,158,16.0,17.0,48,0.00,,,0.00,meteohub,2013-04-02 05:22:00,
2013-04-01 23:27:00,39.4,20.8,24.17,South,180,17.0,17.0,47,0.00,,,0.00,meteohub,2013-04-02 05:27:00,
2013-04-01 23:37:00,39.4,18.7,24.17,South,180,20.0,20.0,43,0.00,,,0.00,meteohub,2013-04-02 05:37:00,
2013-04-01 23:42:00,39.2,18.0,24.17,South,180,18.0,21.0,42,0.00,,,0.00,meteohub,2013-04-02 05:42:00,
2013-04-01 23:47:00,39.2,18.0,24.17,South,180,21.0,21.0,42,0.00,,,0.00,meteohub,2013-04-02 05:47:00,
2013-04-01 23:52:00,39.0,17.2,24.17,South,180,21.0,21.0,41,0.00,,,0.00,meteohub,2013-04-02 05:52:00,
2013-04-01 23:57:00,39.2,17.4,24.17,South,180,19.0,21.0,41,0.00,,,0.00,meteohub,2013-04-02 05:57:00,